Location: Gad�tanya
(48.0500°N, 20.8500°E)
Time: 11:32:54
(UTC+00:00)

ALOS 2 - Pass Details

Date: 05 July 2020
Orbit: 630 x 632 km, 97.9° (Epoch: 15 August)

Event Time Altitude Azimuth Distance (km) Brightness Sun altitude
Exits shadow 21:58:09 41° 163° (SSE) 921 2.9 -18.6°
Maximum altitude 21:59:40 88° 76° (ENE) 640 2.5 -18.7°
Drops below altitude 10° 22:04:06 10° 347° (NNW) 2,026 6.5 -18.8°
Sets 22:06:18 0° 347° (NNW) 2,938 7.7 -18.8°
